Regional Weather Roundup
Issued by NWS

Home | Current Version | Previous Version | Graphics & Text | Print | Product List | Glossary On
Versions: 1 2 3 4 5 6 7 8 9 10 11 12 13 14 15 16 17 18 19 20 21 22 23 24 25 26 27 28 29 30 31 32 33 34 35 36 37 38 39 40 41 42 43 44 45 46 47 48 49 50
000
ASUS45 KPSR 220710
RWRAZ

ARIZONA REGIONAL HOURLY WEATHER ROUNDUP
NATIONAL WEATHER SERVICE PHOENIX AZ
1200 AM MST MON DEC 22 2014

NOTE: FAIR INDICATES FEW OR NO CLOUDS BELOW 12,000 FEET WITH NO
SIGNIFICANT WEATHER AND/OR OBSTRUCTIONS TO VISIBILITY.

AZZ001>003-036-220800-
NORTHWEST ARIZONA

CITY           SKY/WX    TMP DP  RH WIND       PRES   REMARKS
BULLHEAD CITY  PTCLDY    50  41  71 CALM      30.09F
KINGMAN        CLEAR     37  33  85 SW3       30.11R
$$

AZZ004>008-015-016-018-220800-
NORTH CENTRAL ARIZONA

CITY           SKY/WX    TMP DP  RH WIND       PRES   REMARKS
GRAND CANYON   PTCLDY    31  29  92 CALM      30.14S
PRESCOTT       CLOUDY    41  32  70 CALM      30.11S
FLAGSTAFF      MOCLDY    43  31  62 VRB5      30.12S
PAYSON         CLOUDY    41  36  81 CALM      30.08F
PAGE           PTCLDY    38  31  76 CALM      30.02S
$$

AZZ009>014-017-220800-
NORTHEAST ARIZONA

CITY           SKY/WX    TMP DP  RH WIND       PRES   REMARKS
WINSLOW        MOCLDY    33  31  92 S8        30.06F WCI  26
SAINT JOHNS    CLOUDY    36  31  82 S7        30.05F WCI  30
WINDOW ROCK    CLOUDY    38  30  73 S6        30.03F WCI  33
SHOW LOW       PTCLDY    32  27  80 CALM      30.10F
$$

AZZ023-220800-
GREATER PHOENIX AREA

CITY           SKY/WX    TMP DP  RH WIND       PRES   REMARKS
PHOENIX        CLOUDY    54  42  64 E6        30.04F
BUCKEYE          N/A     46  46 100 NW5       30.05F
LUKE AFB       CLOUDY    49  46  89 CALM      30.04F
DEER VALLEY    CLOUDY    50  42  74 CALM      30.03F
SCOTTSDALE     CLOUDY    51  41  68 CALM      30.04F
MESA-GATEWAY   CLEAR     46  43  87 SE3       30.07F
$$

AZZ027-028-220800-
SOUTHWEST MARICOPA COUNTY AND PINAL COUNTY

CITY           SKY/WX    TMP DP  RH WIND       PRES   REMARKS
CASA GRANDE    CLOUDY    46  39  76 MISG      30.05S
GILA BEND      FAIR      49  42  78 S3        30.07R
$$

AZZ503-504-507>509-220800-
SOUTHEAST ARIZONA

CITY           SKY/WX    TMP DP  RH WIND       PRES   REMARKS
TUCSON         PTCLDY    46  39  76 S5        30.08S
DAVIS-MONTHAN  MOCLDY    44  39  84 SE7       30.05S
NOGALES        PTCLDY    41  33  73 NE5       30.07S
SIERRA VISTA   PTCLDY    43  33  68 W6        30.08S
DOUGLAS        MOCLDY    38  31  76 NE6       30.06F WCI  33
SAFFORD        PTCLDY    45  36  70 W10       30.01R
$$

AZZ020-021-025-026-031-220800-
SOUTHWEST ARIZONA

CITY           SKY/WX    TMP DP  RH WIND       PRES   REMARKS
YUMA           MOCLDY   N/A N/A N/A SE3       30.04F
$$

CAZ031-033-041-043-047-048-061-220800-
SOUTHERN CALIFORNIA

CITY           SKY/WX    TMP DP  RH WIND       PRES   REMARKS
DOWNTOWN L.A.  PTCLDY    56  52  86 CALM      30.05S FOG
L.A. AIRPORT   PTCLDY    60  55  83 CALM      30.06S
SAN DIEGO      PTCLDY    59  54  83 N3        30.07S
BURBANK        PTCLDY    54  49  83 NW5       30.05F
ONTARIO        PTCLDY    55  48  77 CALM      30.06S HAZE
RIVERSIDE      PTCLDY    54  48  80 CALM      30.06S
PALM SPRINGS   PTCLDY    56  48  74 NW8       30.07F
EL CENTRO NAS  CLOUDY    52  45  77 SW6       30.04F
IMPERIAL       CLOUDY    53  46  77 CALM      30.03F
BLYTHE         CLOUDY    49  47  93 W7        30.05S
NEEDLES        MOCLDY    50  41  71 W6        30.08R
$$

NVZ020-UTZ003-220800-
SOUTHERN NEVADA-UTAH

CITY           SKY/WX    TMP DP  RH WIND       PRES   REMARKS
LAS VEGAS      CLOUDY    49  39  68 S5        30.04F
SALT LAKE CITY CLOUDY    43  37  79 W3        30.04S
$$

NMZ009-TXZ055-220800-
NEW MEXICO-WEST TEXAS

CITY           SKY/WX    TMP DP  RH WIND       PRES   REMARKS
ALBUQUERQUE    PTCLDY    34  28  79 E10       29.94R WCI  26
EL PASO        CLOUDY    56  28  34 W12       29.90F
$$


........................KEY........................
SKY/WX - SKY CONDITION/WEATHER
TMP    - TEMPERATURE IN FAHRENHEIT
DP     - DEW POINT IN FAHRENHEIT
RH     - RELATIVE HUMIDITY IN PERCENT
WIND   - DIRECTION AND SPEED IN MILES PER HOUR (MPH)
VRB    - VARIABLE WIND DIRECTION
PRES   - MEAN SEA LEVEL PRESSURE IN INCHES OF MERCURY
         F - FALLING PRESSURE   R - RISING PRESSURE
         S - STEADY PRESSURE
VSB    - VISIBILITY IN MILES
HX     - HEAT INDEX IN FAHRENHEIT
WCI    - WIND CHILL INDEX IN FAHRENHEIT
TC     - TEMPERATURE IN CELSIUS WHICH IS ALSO KNOWN AS
         TEMPERATURE IN CENTIGRADE
AFB    - AIR FORCE BASE
         LUKE AFB IS LUKE AIR FORCE BASE
         DAVIS-MONTHAN IS DAVIS-MONTHAN AIR FORCE BASE
NAS    - NAVAL AIR STATION
         EL CENTRO NAS IS EL CENTRO NAVAL AIR STATION
N/A    - NOT AVAILABLE


USA.gov is the U.S. government's official web portal to all federal, state and local government web resources and services.